Home > Weather > Baltimore > Past weeks

Flag for U.S.A. Weather for the Past 2 Weeks in Baltimore, Maryland, U.S.A.

Now
34 °F

Passing clouds.


Feels Like: 25 °F
Forecast: 32 / 38 °F
Wind: 12 mph from West

Location: Baltimore-Washington International Airport

Current Time: Feb 9, 2016 at 6:25:11 PM

Latest Report: Feb 9, 2016 at 5:54 PM


Visibility: 10 mi

Pressure: 29.61 "Hg

Humidity: 76%

Dew point: 27 °F

Location of BaltimoreLocation

Historic Weather in Baltimore — Graph

°F

Baltimore Temperature Yesterday

Maximum temperature yesterday: 45 °F (at 2:54 PM)
Minimum temperature yesterday: 34 °F (at 5:54 AM)
Average temperature yesterday: 39 °F

High & Low Weather Summary for the Past Weeks

 TemperatureHumidityPressure
High61 °F (Jan 31, 2:54 PM)100% (Feb 1, 6:54 PM)30.46 "Hg (Feb 1, 6:54 PM)
Low18 °F (Jan 28, 5:54 AM)32% (Jan 31, 12:54 PM)29.54 "Hg (Jan 29, 4:54 AM)
Average38 °F69%30.01 "Hg
* Reported Jan 25 4:54 PM — Feb 9 4:54 PM, Baltimore, Weather by CustomWeather, © 2016

Note: Actual official high and low records may vary slightly from our data, if they occured in-between our weather recording intervals... More about our weather records

Advertising

Baltimore Weather History for the Previous 24 Hours

 ConditionsComfort  
Time TempWeatherWind HumidityBarometerVisibility
4:54 PM
Tue, Feb 9
35 °FBroken clouds.14 mph78%29.58 "Hg10 mi
3:54 PM37 °FPartly sunny.7 mph86%29.56 "Hg7 mi
2:54 PM36 °FLight rain. Mostly cloudy.No wind89%29.54 "Hg7 mi
1:54 PM36 °FLight rain. Fog.No wind89%29.54 "Hg5 mi
12:54 PM34 °FLight snow. Fog.5 mph97%29.55 "Hg1 mi
11:54 AM34 °FLight snow. Fog.5 mph97%29.56 "Hg1 mi
10:54 AM34 °FLight snow. Fog.7 mph92%29.57 "Hg1 mi
9:54 AM33 °FLight snow. Fog.7 mph96%29.58 "Hg1 mi
8:54 AM33 °FHeavy snow. Fog.8 mph96%29.59 "Hg0 mi
7:54 AM33 °FLight snow. Fog.8 mph96%29.58 "Hg1 mi
6:54 AM34 °FLight snow. Fog.7 mph97%29.58 "Hg3 mi
5:54 AM34 °FLight rain. Fog.10 mph97%29.58 "Hg3 mi
4:54 AM34 °FLight snow. Fog.9 mph97%29.58 "Hg3 mi
3:54 AM34 °FLight snow. Fog.7 mph97%29.58 "Hg4 mi
2:54 AM35 °FLight rain. Fog.9 mph92%29.60 "Hg5 mi
1:54 AM36 °FLight rain. Fog.6 mph92%29.62 "Hg6 mi
12:54 AM36 °FLight rain. Fog.8 mph92%29.64 "Hg6 mi
11:54 PM
Mon, Feb 8
36 °FLight rain. Fog.6 mph92%29.66 "Hg6 mi
10:54 PM37 °FLight rain. Fog.10 mph89%29.67 "Hg6 mi
9:54 PM38 °FOvercast.6 mph86%29.70 "Hg10 mi
8:54 PM39 °FDrizzle. Mostly cloudy.6 mph79%29.70 "Hg9 mi
7:54 PM40 °FDrizzle. Mostly cloudy.5 mph68%29.72 "Hg9 mi
6:54 PM40 °FMostly cloudy.9 mph65%29.71 "Hg10 mi
Weather by CustomWeather, © 2016

See weather overviewHow to use our weather pages